Spokane, WA
on Tuesday, January 29, 2013

Tuesday
Previous Day Next Day
Daily Summary
 ActualAverageRecord
Temperature
Mean Temperature °F 31°F  
Max Temperature 35°F 36°F 53°F (1967)
Min Temperature 25°F 26°F -24°F (1950)
Degree Days
Heating Degree Days 35 34  
Month to date heating degree days 1187 1031  
Since 1 July heating degree days 3612 3865  
Cooling Degree Days 0 0  
Month to date cooling degree days 0 0  
Year to date cooling degree days 0 0  
Moisture
Dew Point 28°F   
Average Humidity 85    
Maximum Humidity 100    
Minimum Humidity 70    
Precipitation
Precipitation 0.12 in 0.04 in 0.74 in (1890)
Month to date precipitation 1.63 1.69  
Year to date precipitation 1.63 1.69  
Snow
Snow 1.00 in 0.30 in 7.80 in (1961)
Month to date snowfall 14.2 10.9  
Since 1 July snowfall 38.2 33.0  
Snow Depth 1.00 in   
Wind
Wind Speed 4 mph   
Max Wind Speed 13 mph   
Max Gust Speed 15 mph   
Visibility 4 miles   
Events Fog , Rain , Snow   

Key: T is trace of precipitation, MM is missing value
Source: NWS Daily Summary
Time(PST)TemperatureDew PointHumidity Pressure Visibility Wind DirectionWind SpeedGust SpeedPrecipitationEvents Conditions
12:53 AM 30.0°F 28.0°F 92% 29.89 in 5.0 miles Calm Calm - N/A   Overcast
1:53 AM 30.0°F 28.0°F 92% 29.92 in 7.0 miles WSW 3.5 mph - N/A   Overcast
2:53 AM 28.9°F 28.0°F 96% 29.94 in 5.0 miles WSW 4.6 mph - N/A   Overcast
3:53 AM 28.4°F 28.4°F 100% 29.89 in 0.5 miles Calm Calm - N/A   Overcast
4:53 AM 28.0°F 26.1°F 92% 29.99 in 0.5 miles West 4.6 mph - N/A   Overcast
5:53 AM 27.0°F 26.1°F 96% 30.02 in 0.5 miles Calm Calm - N/A   Overcast
6:53 AM 27.0°F 25.0°F 92% 30.05 in 0.5 miles West 5.8 mph - N/A Fog Light Freezing Fog
7:53 AM 26.1°F 25.0°F 96% 30.09 in 0.5 miles WSW 3.5 mph - N/A   Overcast
8:08 AM 26.6°F 24.8°F 93% 30.02 in 1.0 miles SW 3.5 mph - N/A   Overcast
8:45 AM 26.6°F 24.8°F 93% 30.03 in 7.0 miles Calm Calm - N/A Fog Patches of Fog
8:53 AM 26.1°F 25.0°F 96% 30.12 in 8.0 miles Calm Calm - N/A Fog Mostly Cloudy
9:53 AM 28.0°F 25.0°F 88% 30.14 in 10.0 miles Calm Calm - N/A Fog Mostly Cloudy
10:53 AM 28.0°F 25.0°F 88% 30.17 in 10.0 miles WSW 3.5 mph - N/A   Mostly Cloudy
11:53 AM 30.9°F 26.1°F 82% 30.17 in 10.0 miles West 3.5 mph - N/A   Mostly Cloudy
12:53 PM 34.0°F 27.0°F 75% 30.18 in 10.0 miles WSW 5.8 mph - N/A   Mostly Cloudy
1:53 PM 35.1°F 26.1°F 70% 30.19 in 10.0 miles Calm Calm - N/A   Mostly Cloudy
2:53 PM 35.1°F 28.0°F 76% 30.19 in 10.0 miles SW 8.1 mph - N/A   Mostly Cloudy
3:53 PM 34.0°F 28.0°F 79% 30.19 in 10.0 miles South 4.6 mph - N/A   Overcast
4:53 PM 33.1°F 27.0°F 78% 30.20 in 10.0 miles SSW 9.2 mph - N/A   Overcast
5:53 PM 32.0°F 28.9°F 88% 30.21 in 1.2 miles SSW 6.9 mph - 0.00 in Snow Light Snow
6:53 PM 30.9°F 30.0°F 96% 30.20 in 1.2 miles Calm Calm - 0.02 in Snow Light Snow
7:02 PM 30.2°F 30.2°F 100% 30.12 in 0.8 miles SE 3.5 mph - 0.00 in Snow Light Snow
7:53 PM 32.0°F 30.0°F 92% 30.18 in 1.0 miles ESE 4.6 mph - 0.02 in Snow Light Snow
8:53 PM 32.0°F 30.9°F 96% 30.17 in 1.0 miles ESE 3.5 mph - 0.03 in Snow Light Snow
8:59 PM 32.0°F 30.2°F 93% 30.10 in 0.5 miles ESE 3.5 mph - 0.00 in Snow Light Snow
9:53 PM 33.1°F 32.0°F 96% 30.15 in 1.5 miles South 4.6 mph - 0.03 in Snow Light Snow
10:38 PM 33.8°F 32.0°F 93% 30.09 in 3.0 miles Calm Calm - 0.01 in Snow Light Snow
10:53 PM 33.1°F 32.0°F 96% 30.14 in 3.0 miles SSW 5.8 mph - 0.02 in Rain , Snow Light Rain
11:53 PM 34.0°F 33.1°F 96% 30.14 in 7.0 miles SW 6.9 mph - 0.00 in   Overcast
Moon Phase
Jan. 29 Feb. 03 Feb. 10 Feb. 17 Feb. 25
Sunrise:07:20 AM (PST) Moon Rise:08:05 PM (PST)1/29
Sunset:04:47 PM (PST) Moon Set:08:04 AM (PST)1/29

Copyright © 2014 The Weather Underground, Inc.